Location: Haulchin
(50.3172°N, 3.4360°E)
Time: 06:37:12
(UTC+00:00)

Cosmos 2333 Rocket - Pass Details

Date: 16 August 2024
Orbit: 839 x 863 km, 70.8° (Epoch: 16 September)

Event Time Altitude Azimuth Distance (km) Brightness Sun altitude
Exits shadow 01:50:47 10° 277° (W) 2,527 4.4 -20.9°
Reaches altitude 10° 01:50:53 10° 277° (W) 2,503 4.4 -20.8°
Maximum altitude 01:55:06 21° 325° (NW) 1,875 4.2 -20.5°
Drops below altitude 10° 01:59:21 10° 12° (NNE) 2,515 5.7 -20.1°
Sets 02:02:30 0° 29° (NNE) 3,454 7.0 -19.8°
